Regional Weather Roundup
Issued by NWS Albany, NY

Home | Current Version | Previous Version | Graphics & Text | Print | Product List | Glossary Off
Versions: 1 2 3 4 5 6 7 8 9 10 11 12 13 14 15 16 17 18 19 20 21 22 23 24 25 26 27 28

000
ASUS41 KALY 030210
RWRALY

NEW YORK STATE HOURLY WEATHER ROUNDUP
NATIONAL WEATHER SERVICE ALBANY NY
900 PM EST FRI DEC 02 2016

NOTE: "FAIR" INDICATES FEW OR NO CLOUDS BELOW 12,000 FEET WITH NO
SIGNIFICANT WEATHER AND/OR NO OBSTRUCTIONS TO VISIBILITY.

NYZ032-033-038>043-046>054-057>066-NYZ062>081-082-084-030300-
EAST


CITY           SKY/WX    TMP DP  RH WIND       PRES   REMARKS
ALBANY         DRIZZLE   42  28  57 W16G23    29.82R
GLENS FALLS    CLOUDY    39  32  76 SW8       29.78S WCI  33
POUGHKEEPSIE   CLOUDY    41  30  65 SW14      29.85F
NEWBURGH       PTCLDY    39  34  81 W18       29.87F WCI  30
MONTGOMERY     MOCLDY    41  30  65 W8        29.86F
WHITE PLAINS   MOCLDY    43  29  57 W14G23    29.86S
ISLIP          MOCLDY    46  28  49 W13G21    29.86S
NEW YORK CITY  MOCLDY    48  29  47 W16G24    29.89S
CENTRAL PARK   CLOUDY    46  28  49 W12G21    29.92S
$$

NYZ005>009-017-018-044>046-055-056-030300-
CENTRAL


CITY           SKY/WX    TMP DP  RH WIND       PRES   REMARKS
FULTON         LGT RAIN  38  32  79 W12G24    29.87S WCI  30
SYRACUSE       FLURRIES  33  33 100 W15       29.88S WCI  23
ROME           MIX PCPN  33  33 100 W9        29.86S WCI  25
ELMIRA         LGT RAIN  39  28  64 W13G21    29.91F WCI  31
BINGHAMTON     LGT SNOW  33  28  81 W15G23    29.85F WCI  23
MONTICELLO     PTCLDY    36  28  75 W12G22    29.85S WCI  27
$$

NYZ026>034-041>043-087-030300-
NORTH


CITY           SKY/WX    TMP DP  RH WIND       PRES   REMARKS
WATERTOWN      MOCLDY    36  27  69 NW13      29.86R WCI  27
FORT DRUM      NOT AVBL
OGDENSBURG     MOCLDY    37  31  81 W7        29.82S WCI  31
MASSENA        CLOUDY    36  29  75 W10       29.80S WCI  28
SARANAC LAKE   CLOUDY    30  26  85 W9G18     29.72S WCI  22
PLATTSBURGH    CLOUDY    37  28  70 W6        29.75S WCI  32
$$

NYZ001>004-010>016-019>021-085-030300-
WEST


CITY           SKY/WX    TMP DP  RH WIND       PRES   REMARKS
NIAGARA FALLS  CLOUDY    38  33  82 W15       29.99R WCI  29
BUFFALO        LGT RAIN  37  32  82 W15G23    29.98S WCI  28
DUNKIRK        LGT RAIN  40  33  76 W17G30    30.03R WCI  31
JAMESTOWN      CLOUDY    34  28  80 W14G21    29.98S WCI  24
WELLSVILLE     FLURRIES  34  30  85 W16G23    29.93R WCI  24
ROCHESTER      FLURRIES  36  34  92 W8        29.94S WCI  30
PENN YAN       CLOUDY    38  29  70 W16G24    29.91R WCI  29
$$

             KEY
       WCI = WIND CHILL INDEX
       VSB = VISIBILITY
       HX  = HEAT INDEX
$$




USA.gov is the U.S. government's official web portal to all federal, state and local government web resources and services.